Weather in Torkhany

Russia / Chuvash Republic     55˚33′25″N   46˚34′19″E
temp.,
°C
wind,
m/s
gust,
m/s
humid.,
%
clouds,
%
prec.,
mm/h
press.,
hPa
HPBL,
m
16 january, sat
sat1600:00−11˚ene41094100 0.3 1005376
03:00−12˚ne41095100 2.7 1001435
06:00−11˚ne51094100 4.3 997592
09:00−10˚ne3895100 5.9 996482
12:00−9˚nne3694100 1.1 995376
15:00−10˚wnw3495100 1.7 996305
18:00−13˚w3696100 0.4 997202
21:00−14˚wsw379698 0.6 999230
17 january, sun
sun1700:00−15˚w389699 0.1 1000278
03:00−16˚wsw389699 0.2 1002299
06:00−16˚w3896100 0.1 1004400
09:00−17˚w3896100 0.3 1007385
12:00−16˚wnw3693100 0.1 1010474
15:00−18˚w2596100 0.1 1012253
18:00−24˚wnw229887 0.0 101420
21:00−26˚w1210083 0.0 101619
18 january, mon
mon1800:00−28˚wnw1110047 0.0 101719
03:00−29˚wsw1110064 0.0 101819
06:00−29˚nnw119978 0.0 101819
09:00−28˚n119871 0.0 102019
12:00−23˚wsw129665 0.0 1020204
15:00−23˚nnw009783 0.0 101920
18:00−26˚ssw0097100 0.0 101919
21:00−25˚w0097100 0.0 102020
19 january, tue
tue1900:00−24˚ne1295100 0.0 101922
03:00−22˚ne1396100 0.0 1019109
06:00−21˚ne2396100 0.0 1018166
09:00−20˚ne2495100 0.0 1018222
12:00−18˚ne2493100 0.0 1017263
15:00−18˚nne2593100 0.0 1017264
18:00−18˚nne2697100 0.1 1017278
21:00−19˚n2696100 0.3 1018227
20 january, wed
wed2000:00−21˚n2595100 0.0 1018155
03:00−23˚n2593100 0.0 1019107
06:00−27˚n238921 0.0 102134
09:00−27˚n228610 0.0 102337
12:00−21˚nne23870 0.0 1024205
15:00−21˚n12920 0.0 102520
18:00−25˚nnw11870 0.0 102720
21:00−27˚sw11870 0.0 102819